This is the latest recevied weather packets stored in our database for station/object HB9TJR-3. If no packets are shown the sender has not sent any weather packets the latest 10 day(s).
| Time | Temp. | Humidity | Pressure | Rain* | Wind** | Luminosity | Snow |
|---|---|---|---|---|---|---|---|
| 1777545576 | 12.22° C | 77% | 869.4 hPa | 0 mm | - | - | - |
| 1777544616 | 11.67° C | 74% | 869.4 hPa | 0 mm | - | - | - |
| 1777543655 | 11.67° C | 76% | 869.3 hPa | 0 mm | - | - | - |
| 1777542696 | 11.11° C | 76% | 869.2 hPa | 0 mm | - | - | - |
| 1777541736 | 11.11° C | 73% | 869.2 hPa | 0 mm | - | - | - |
| 1777540776 | 11.11° C | 75% | 869 hPa | 0 mm | - | - | - |
| 1777539816 | 11.11° C | 74% | 869 hPa | 0 mm | - | - | - |
| 1777538856 | 10.56° C | 79% | 869 hPa | 0 mm | - | - | - |
| 1777537895 | 10° C | 75% | 868.9 hPa | 0 mm | - | - | - |
| 1777536939 | 10° C | 74% | 868.8 hPa | 0 mm | - | - | - |
| 1777535976 | 10° C | 76% | 868.7 hPa | 0 mm | - | - | - |
| 1777535015 | 9.44° C | 75% | 868.7 hPa | 0 mm | - | - | - |
| 1777534056 | 9.44° C | 76% | 868.6 hPa | 0 mm | - | - | - |
| 1777533098 | 8.89° C | 74% | 868.6 hPa | 0 mm | - | - | - |
| 1777532135 | 8.89° C | 73% | 868.4 hPa | 0 mm | - | - | - |
| 1777531178 | 8.33° C | 70% | 868.4 hPa | 0 mm | - | - | - |
| 1777530215 | 9.44° C | 73% | 868.3 hPa | 0 mm | - | - | - |
| 1777529255 | 9.44° C | 76% | 868.4 hPa | 0 mm | - | - | - |
| 1777528296 | 8.89° C | 78% | 868.4 hPa | 0 mm | - | - | - |
| 1777527335 | 8.89° C | 71% | 868.4 hPa | 0 mm | - | - | - |
| 1777525416 | 7.78° C | 83% | 868.2 hPa | 0 mm | - | - | - |
| 1777524455 | 7.22° C | 88% | 868.3 hPa | 0 mm | - | - | - |
| 1777523495 | 6.11° C | 73% | 868 hPa | 0 mm | - | - | - |
| 1777522535 | 6.11° C | 70% | 867.9 hPa | 0 mm | - | - | - |
| 1777521575 | 6.11° C | 70% | 867.9 hPa | 0 mm | - | - | - |
* Rain latest hour (hover to see other rain measurements)
** Current wind speed in m/s (hover to see current wind gust speed)